#Datum;Uhrzeit;WR;Pac;DaySum;Status;WR;Pac;DaySum;Status;Pdc1;Udc;Temp;WR;Pac;DaySum;Status;Pdc1;Udc;Temp;WR;Pac;DaySum;Status;Pdc1;Udc;Temp;WR;Pac;DaySum;Status;Pdc1;Pdc2;Udc1;Udc2;Temp;WR;Pac;DaySum;Status;Pdc1;Pdc2;Udc1;Udc2;Temp;WR;Pac;DaySum;Status;Pdc1;Udc;Temp;WR;Pac;DaySum;Status;Pdc1;Udc;Temp;WR;Pac;DaySum;Status;Pdc1;Udc;Temp
16.12.17;23:55:00;1;546;14294;0;2;0;2458;0;0;0;0;3;0;1519;0;0;0;0;4;0;2091;0;0;0;0;5;0;5435;0;0;0;0;0;0;6;0;3993;0;0;0;0;0;0;7;0;2776;0;0;0;0;8;0;2794;0;0;0;0;9;0;1503;0;0;0;0
16.12.17;23:50:00;1;414;14234;0;2;0;2458;0;0;0;0;3;0;1519;0;0;0;0;4;0;2091;0;0;0;0;5;0;5435;0;0;0;0;0;0;6;0;3993;0;0;0;0;0;0;7;0;2776;0;0;0;0;8;0;2794;0;0;0;0;9;0;1503;0;0;0;0
16.12.17;23:45:00;1;416;14199;0;2;0;2458;0;0;0;0;3;0;1519;0;0;0;0;4;0;2091;0;0;0;0;5;0;5435;0;0;0;0;0;0;6;0;3993;0;0;0;0;0;0;7;0;2776;0;0;0;0;8;0;2794;0;0;0;0;9;0;1503;0;0;0;0
16.12.17;23:40:00;1;412;14164;0;2;0;2458;0;0;0;0;3;0;1519;0;0;0;0;4;0;2091;0;0;0;0;5;0;5435;0;0;0;0;0;0;6;0;3993;0;0;0;0;0;0;7;0;2776;0;0;0;0;8;0;2794;0;0;0;0;9;0;1503;0;0;0;0
16.12.17;23:35:00;1;770;14130;0;2;0;2458;0;0;0;0;3;0;1519;0;0;0;0;4;0;2091;0;0;0;0;5;0;5435;0;0;0;0;0;0;6;0;3993;0;0;0;0;0;0;7;0;2776;0;0;0;0;8;0;2794;0;0;0;0;9;0;1503;0;0;0;0
16.12.17;23:30:00;1;375;14070;0;2;0;2458;0;0;0;0;3;0;1519;0;0;0;0;4;0;2091;0;0;0;0;5;0;5435;0;0;0;0;0;0;6;0;3993;0;0;0;0;0;0;7;0;2776;0;0;0;0;8;0;2794;0;0;0;0;9;0;1503;0;0;0;0
16.12.17;23:25:00;1;375;14038;0;2;0;2458;0;0;0;0;3;0;1519;0;0;0;0;4;0;2091;0;0;0;0;5;0;5435;0;0;0;0;0;0;6;0;3993;0;0;0;0;0;0;7;0;2776;0;0;0;0;8;0;2794;0;0;0;0;9;0;1503;0;0;0;0
16.12.17;23:20:00;1;374;14007;0;2;0;2458;0;0;0;0;3;0;1519;0;0;0;0;4;0;2091;0;0;0;0;5;0;5435;0;0;0;0;0;0;6;0;3993;0;0;0;0;0;0;7;0;2776;0;0;0;0;8;0;2794;0;0;0;0;9;0;1503;0;0;0;0
16.12.17;23:15:00;1;374;13976;0;2;0;2458;0;0;0;0;3;0;1519;0;0;0;0;4;0;2091;0;0;0;0;5;0;5435;0;0;0;0;0;0;6;0;3993;0;0;0;0;0;0;7;0;2776;0;0;0;0;8;0;2794;0;0;0;0;9;0;1503;0;0;0;0
16.12.17;23:10:00;1;572;13926;0;2;0;2458;0;0;0;0;3;0;1519;0;0;0;0;4;0;2091;0;0;0;0;5;0;5435;0;0;0;0;0;0;6;0;3993;0;0;0;0;0;0;7;0;2776;0;0;0;0;8;0;2794;0;0;0;0;9;0;1503;0;0;0;0
16.12.17;23:05:00;1;432;13884;0;2;0;2458;0;0;0;0;3;0;1519;0;0;0;0;4;0;2091;0;0;0;0;5;0;5435;0;0;0;0;0;0;6;0;3993;0;0;0;0;0;0;7;0;2776;0;0;0;0;8;0;2794;0;0;0;0;9;0;1503;0;0;0;0
16.12.17;23:00:00;1;444;13848;0;2;0;2458;0;0;0;0;3;0;1519;0;0;0;0;4;0;2091;0;0;0;0;5;0;5435;0;0;0;0;0;0;6;0;3993;0;0;0;0;0;0;7;0;2776;0;0;0;0;8;0;2794;0;0;0;0;9;0;1503;0;0;0;0
16.12.17;22:55:00;1;476;13811;0;2;0;2458;0;0;0;0;3;0;1519;0;0;0;0;4;0;2091;0;0;0;0;5;0;5435;2;0;0;0;0;0;6;0;3993;2;0;0;0;0;0;7;0;2776;0;0;0;0;8;0;2794;0;0;0;0;9;0;1503;0;0;0;0
16.12.17;22:50:00;1;1099;13771;0;2;0;2458;0;0;0;0;3;0;1519;0;0;0;0;4;0;2091;0;0;0;0;5;0;5435;2;0;0;0;0;0;6;0;3993;2;0;0;0;0;0;7;0;2776;0;0;0;0;8;0;2794;0;0;0;0;9;0;1503;0;0;0;0
16.12.17;22:45:00;1;490;13702;0;2;0;2458;0;0;0;0;3;0;1519;0;0;0;0;4;0;2091;0;0;0;0;5;0;5435;2;0;0;0;0;0;6;0;3993;2;0;0;0;0;0;7;0;2776;0;0;0;0;8;0;2794;0;0;0;0;9;0;1503;0;0;0;0
16.12.17;22:40:00;1;446;13661;0;2;0;2458;0;0;0;0;3;0;1519;0;0;0;0;4;0;2091;0;0;0;0;5;0;5435;2;0;0;0;0;0;6;0;3993;2;0;0;0;0;0;7;0;2776;0;0;0;0;8;0;2794;0;0;0;0;9;0;1503;0;0;0;0
16.12.17;22:35:00;1;550;13624;0;2;0;2458;0;0;0;0;3;0;1519;0;0;0;0;4;0;2091;0;0;0;0;5;0;5435;2;0;0;0;0;0;6;0;3993;2;0;0;0;0;0;7;0;2776;0;0;0;0;8;0;2794;0;0;0;0;9;0;1503;0;0;0;0
16.12.17;22:30:00;1;563;13577;0;2;0;2458;0;0;0;0;3;0;1519;0;0;0;0;4;0;2091;0;0;0;0;5;0;5435;2;0;0;0;0;0;6;0;3993;2;0;0;0;0;0;7;0;2776;0;0;0;0;8;0;2794;0;0;0;0;9;0;1503;0;0;0;0
16.12.17;22:25:00;1;1061;13532;0;2;0;2458;0;0;0;0;3;0;1519;0;0;0;0;4;0;2091;0;0;0;0;5;0;5435;2;0;0;0;0;0;6;0;3993;2;0;0;0;0;0;7;0;2776;0;0;0;0;8;0;2794;0;0;0;0;9;0;1503;0;0;0;0
16.12.17;22:20:00;1;496;13462;0;2;0;2458;0;0;0;0;3;0;1519;0;0;0;0;4;0;2091;0;0;0;0;5;0;5435;2;0;0;0;0;0;6;0;3993;2;0;0;0;0;0;7;0;2776;0;0;0;0;8;0;2794;0;0;0;0;9;0;1503;0;0;0;0
16.12.17;22:15:00;1;420;13421;0;2;0;2458;0;0;0;0;3;0;1519;0;0;0;0;4;0;2091;0;0;0;0;5;0;5435;2;0;0;0;0;0;6;0;3993;2;0;0;0;0;0;7;0;2776;0;0;0;0;8;0;2794;0;0;0;0;9;0;1503;0;0;0;0
16.12.17;22:10:00;1;497;13385;0;2;0;2458;0;0;0;0;3;0;1519;0;0;0;0;4;0;2091;0;0;0;0;5;0;5435;2;0;0;0;0;0;6;0;3993;2;0;0;0;0;0;7;0;2776;0;0;0;0;8;0;2794;0;0;0;0;9;0;1503;0;0;0;0
16.12.17;22:05:00;1;905;13343;0;2;0;2458;0;0;0;0;3;0;1519;0;0;0;0;4;0;2091;0;0;0;0;5;0;5435;2;0;0;0;0;0;6;0;3993;2;0;0;0;0;0;7;0;2776;0;0;0;0;8;0;2794;0;0;0;0;9;0;1503;0;0;0;0
16.12.17;22:00:00;1;491;13273;0;2;0;2458;0;0;0;0;3;0;1519;0;0;0;0;4;0;2091;0;0;0;0;5;0;5435;2;0;0;0;0;0;6;0;3993;2;0;0;0;0;0;7;0;2776;0;0;0;0;8;0;2794;0;0;0;0;9;0;1503;0;0;0;0
16.12.17;21:55:00;1;549;13231;0;2;0;2458;0;0;0;0;3;0;1519;0;0;0;0;4;0;2091;0;0;0;0;5;0;5435;2;0;0;0;0;0;6;0;3993;2;0;0;0;0;0;7;0;2776;0;0;0;0;8;0;2794;0;0;0;0;9;0;1503;0;0;0;0
16.12.17;21:50:00;1;540;13186;0;2;0;2458;0;0;0;0;3;0;1519;0;0;0;0;4;0;2091;0;0;0;0;5;0;5435;2;0;0;0;0;0;6;0;3993;2;0;0;0;0;0;7;0;2776;0;0;0;0;8;0;2794;0;0;0;0;9;0;1503;0;0;0;0
16.12.17;21:45:00;1;502;13140;0;2;0;2458;0;0;0;0;3;0;1519;0;0;0;0;4;0;2091;0;0;0;0;5;0;5435;2;0;0;0;0;0;6;0;3993;2;0;0;0;0;0;7;0;2776;0;0;0;0;8;0;2794;0;0;0;0;9;0;1503;0;0;0;0
16.12.17;21:40:00;1;1058;13098;0;2;0;2458;0;0;0;0;3;0;1519;0;0;0;0;4;0;2091;0;0;0;0;5;0;5435;2;0;0;0;0;0;6;0;3993;2;0;0;0;0;0;7;0;2776;0;0;0;0;8;0;2794;0;0;0;0;9;0;1503;0;0;0;0
16.12.17;21:35:00;1;500;13028;0;2;0;2458;0;0;0;0;3;0;1519;0;0;0;0;4;0;2091;0;0;0;0;5;0;5435;2;0;0;0;0;0;6;0;3993;2;0;0;0;0;0;7;0;2776;0;0;0;0;8;0;2794;0;0;0;0;9;0;1503;0;0;0;0
16.12.17;21:30:00;1;500;12987;0;2;0;2458;0;0;0;0;3;0;1519;0;0;0;0;4;0;2091;0;0;0;0;5;0;5435;2;0;0;0;0;0;6;0;3993;2;0;0;0;0;0;7;0;2776;0;0;0;0;8;0;2794;0;0;0;0;9;0;1503;0;0;0;0
16.12.17;21:25:00;1;497;12945;0;2;0;2458;0;0;0;0;3;0;1519;0;0;0;0;4;0;2091;0;0;0;0;5;0;5435;2;0;0;0;0;0;6;0;3993;2;0;0;0;0;0;7;0;2776;0;0;0;0;8;0;2794;0;0;0;0;9;0;1503;0;0;0;0
16.12.17;21:20:00;1;500;12903;0;2;0;2458;0;0;0;0;3;0;1519;0;0;0;0;4;0;2091;0;0;0;0;5;0;5435;2;0;0;0;0;0;6;0;3993;2;0;0;0;0;0;7;0;2776;0;0;0;0;8;0;2794;0;0;0;0;9;0;1503;0;0;0;0
16.12.17;21:15:00;1;680;12862;0;2;0;2458;0;0;0;0;3;0;1519;0;0;0;0;4;0;2091;0;0;0;0;5;0;5435;2;0;0;0;0;0;6;0;3993;2;0;0;0;0;0;7;0;2776;0;0;0;0;8;0;2794;0;0;0;0;9;0;1503;0;0;0;0
16.12.17;21:10:00;1;503;12792;0;2;0;2458;0;0;0;0;3;0;1519;0;0;0;0;4;0;2091;0;0;0;0;5;0;5435;2;0;0;0;0;0;6;0;3993;2;0;0;0;0;0;7;0;2776;0;0;0;0;8;0;2794;0;0;0;0;9;0;1503;0;0;0;0
16.12.17;21:05:00;1;538;12750;0;2;0;2458;0;0;0;0;3;0;1519;0;0;0;0;4;0;2091;0;0;0;0;5;0;5435;2;0;0;0;0;0;6;0;3993;2;0;0;0;0;0;7;0;2776;0;0;0;0;8;0;2794;0;0;0;0;9;0;1503;0;0;0;0
16.12.17;21:00:00;1;545;12704;0;2;0;2458;0;0;0;0;3;0;1519;0;0;0;0;4;0;2091;0;0;0;0;5;0;5435;2;0;0;0;0;0;6;0;3993;2;0;0;0;0;0;7;0;2776;0;0;0;0;8;0;2794;0;0;0;0;9;0;1503;0;0;0;0
16.12.17;20:55:00;1;546;12659;0;2;0;2458;0;0;0;0;3;0;1519;0;0;0;0;4;0;2091;0;0;0;0;5;0;5435;2;0;0;0;0;0;6;0;3993;2;0;0;0;0;0;7;0;2776;0;0;0;0;8;0;2794;0;0;0;0;9;0;1503;0;0;0;0
16.12.17;20:50:00;1;1117;12613;0;2;0;2458;0;0;0;0;3;0;1519;0;0;0;0;4;0;2091;0;0;0;0;5;0;5435;2;0;0;0;0;0;6;0;3993;2;0;0;0;0;0;7;0;2776;0;0;0;0;8;0;2794;0;0;0;0;9;0;1503;0;0;0;0
16.12.17;20:45:00;1;501;12542;0;2;0;2458;0;0;0;0;3;0;1519;0;0;0;0;4;0;2091;0;0;0;0;5;0;5435;2;0;0;0;0;0;6;0;3993;2;0;0;0;0;0;7;0;2776;0;0;0;0;8;0;2794;0;0;0;0;9;0;1503;0;0;0;0
16.12.17;20:40:00;1;520;12501;0;2;0;2458;0;0;0;0;3;0;1519;0;0;0;0;4;0;2091;0;0;0;0;5;0;5435;2;0;0;0;0;0;6;0;3993;2;0;0;0;0;0;7;0;2776;0;0;0;0;8;0;2794;0;0;0;0;9;0;1503;0;0;0;0
16.12.17;20:35:00;1;565;12456;0;2;0;2458;0;0;0;0;3;0;1519;0;0;0;0;4;0;2091;0;0;0;0;5;0;5435;2;0;0;0;0;0;6;0;3993;2;0;0;0;0;0;7;0;2776;0;0;0;0;8;0;2794;0;0;0;0;9;0;1503;0;0;0;0
16.12.17;20:30:00;1;569;12409;0;2;0;2458;0;0;0;0;3;0;1519;0;0;0;0;4;0;2091;0;0;0;0;5;0;5435;2;0;0;0;0;0;6;0;3993;2;0;0;0;0;0;7;0;2776;0;0;0;0;8;0;2794;0;0;0;0;9;0;1503;0;0;0;0
16.12.17;20:25:00;1;924;12356;0;2;0;2458;0;0;0;0;3;0;1519;0;0;0;0;4;0;2091;0;0;0;0;5;0;5435;2;0;0;0;0;0;6;0;3993;2;0;0;0;0;0;7;0;2776;0;0;0;0;8;0;2794;0;0;0;0;9;0;1503;0;0;0;0
16.12.17;20:20:00;1;567;12286;0;2;0;2458;0;0;0;0;3;0;1519;0;0;0;0;4;0;2091;0;0;0;0;5;0;5435;2;0;0;0;0;0;6;0;3993;2;0;0;0;0;0;7;0;2776;0;0;0;0;8;0;2794;0;0;0;0;9;0;1503;0;0;0;0
16.12.17;20:15:00;1;570;12239;0;2;0;2458;0;0;0;0;3;0;1519;0;0;0;0;4;0;2091;0;0;0;0;5;0;5435;2;0;0;0;0;0;6;0;3993;2;0;0;0;0;0;7;0;2776;0;0;0;0;8;0;2794;0;0;0;0;9;0;1503;0;0;0;0
16.12.17;20:10:00;1;607;12191;0;2;0;2458;0;0;0;0;3;0;1519;0;0;0;0;4;0;2091;0;0;0;0;5;0;5435;2;0;0;0;0;0;6;0;3993;2;0;0;0;0;0;7;0;2776;0;0;0;0;8;0;2794;0;0;0;0;9;0;1503;0;0;0;0
16.12.17;20:05:00;1;614;12140;0;2;0;2458;0;0;0;0;3;0;1519;0;0;0;0;4;0;2091;0;0;0;0;5;0;5435;2;0;0;0;0;0;6;0;3993;2;0;0;0;0;0;7;0;2776;0;0;0;0;8;0;2794;0;0;0;0;9;0;1503;0;0;0;0
16.12.17;20:00:00;1;1033;12089;0;2;0;2458;0;0;0;0;3;0;1519;0;0;0;0;4;0;2091;0;0;0;0;5;0;5435;2;0;0;0;0;0;6;0;3993;2;0;0;0;0;0;7;0;2776;0;0;0;0;8;0;2794;0;0;0;0;9;0;1503;0;0;0;0
16.12.17;19:55:00;1;551;12010;0;2;0;2458;0;0;0;0;3;0;1519;0;0;0;0;4;0;2091;0;0;0;0;5;0;5435;2;0;0;0;0;0;6;0;3993;2;0;0;0;0;0;7;0;2776;0;0;0;0;8;0;2794;0;0;0;0;9;0;1503;0;0;0;0
16.12.17;19:50:00;1;501;11965;0;2;0;2458;0;0;0;0;3;0;1519;0;0;0;0;4;0;2091;0;0;0;0;5;0;5435;2;0;0;0;0;0;6;0;3993;2;0;0;0;0;0;7;0;2776;0;0;0;0;8;0;2794;0;0;0;0;9;0;1503;0;0;0;0
16.12.17;19:45:00;1;500;11923;0;2;0;2458;0;0;0;0;3;0;1519;0;0;0;0;4;0;2091;0;0;0;0;5;0;5435;2;0;0;0;0;0;6;0;3993;2;0;0;0;0;0;7;0;2776;0;0;0;0;8;0;2794;0;0;0;0;9;0;1503;0;0;0;0
16.12.17;19:40:00;1;503;11881;0;2;0;2458;0;0;0;0;3;0;1519;0;0;0;0;4;0;2091;0;0;0;0;5;0;5435;2;0;0;0;0;0;6;0;3993;2;0;0;0;0;0;7;0;2776;0;0;0;0;8;0;2794;0;0;0;0;9;0;1503;0;0;0;0
16.12.17;19:35:00;1;679;11839;0;2;0;2458;0;0;0;0;3;0;1519;0;0;0;0;4;0;2091;0;0;0;0;5;0;5435;2;0;0;0;0;0;6;0;3993;2;0;0;0;0;0;7;0;2776;0;0;0;0;8;0;2794;0;0;0;0;9;0;1503;0;0;0;0
16.12.17;19:30:00;1;499;11768;0;2;0;2458;0;0;0;0;3;0;1519;0;0;0;0;4;0;2091;0;0;0;0;5;0;5435;2;0;0;0;0;0;6;0;3993;2;0;0;0;0;0;7;0;2776;0;0;0;0;8;0;2794;0;0;0;0;9;0;1503;0;0;0;0
16.12.17;19:25:00;1;501;11726;0;2;0;2458;0;0;0;0;3;0;1519;0;0;0;0;4;0;2091;0;0;0;0;5;0;5435;2;0;0;0;0;0;6;0;3993;2;0;0;0;0;0;7;0;2776;0;0;0;0;8;0;2794;0;0;0;0;9;0;1503;0;0;0;0
16.12.17;19:20:00;1;500;11685;0;2;0;2458;0;0;0;0;3;0;1519;0;0;0;0;4;0;2091;0;0;0;0;5;0;5435;2;0;0;0;0;0;6;0;3993;2;0;0;0;0;0;7;0;2776;0;0;0;0;8;0;2794;0;0;0;0;9;0;1503;0;0;0;0
16.12.17;19:15:00;1;535;11643;0;2;0;2458;0;0;0;0;3;0;1519;0;0;0;0;4;0;2091;0;0;0;0;5;0;5435;2;0;0;0;0;0;6;0;3993;2;0;0;0;0;0;7;0;2776;0;0;0;0;8;0;2794;0;0;0;0;9;0;1503;0;0;0;0
16.12.17;19:10:00;1;948;11598;0;2;0;2458;0;0;0;0;3;0;1519;0;0;0;0;4;0;2091;0;0;0;0;5;0;5435;2;0;0;0;0;0;6;0;3993;2;0;0;0;0;0;7;0;2776;0;0;0;0;8;0;2794;0;0;0;0;9;0;1503;0;0;0;0
16.12.17;19:05:00;1;544;11524;0;2;0;2458;0;0;0;0;3;0;1519;0;0;0;0;4;0;2091;0;0;0;0;5;0;5435;2;0;0;0;0;0;6;0;3993;2;0;0;0;0;0;7;0;2776;0;0;0;0;8;0;2794;0;0;0;0;9;0;1503;0;0;0;0
16.12.17;19:00:00;1;502;11479;0;2;0;2458;0;0;0;0;3;0;1519;0;0;0;0;4;0;2091;0;0;0;0;5;0;5435;2;0;0;0;0;0;6;0;3993;2;0;0;0;0;0;7;0;2776;0;0;0;0;8;0;2794;0;0;0;0;9;0;1503;0;0;0;0
16.12.17;18:55:00;1;505;11437;0;2;0;2458;0;0;0;0;3;0;1519;0;0;0;0;4;0;2091;0;0;0;0;5;0;5435;2;0;0;0;0;0;6;0;3993;2;0;0;0;0;0;7;0;2776;0;0;0;0;8;0;2794;0;0;0;0;9;0;1503;0;0;0;0
16.12.17;18:50:00;1;549;11394;0;2;0;2458;0;0;0;0;3;0;1519;0;0;0;0;4;0;2091;0;0;0;0;5;0;5435;2;0;0;0;0;0;6;0;3993;2;0;0;0;0;0;7;0;2776;0;0;0;0;8;0;2794;0;0;0;0;9;0;1503;0;0;0;0
16.12.17;18:45:00;1;738;11349;0;2;0;2458;0;0;0;0;3;0;1519;0;0;0;0;4;0;2091;0;0;0;0;5;0;5435;2;0;0;0;0;0;6;0;3993;2;0;0;0;0;0;7;0;2776;0;0;0;0;8;0;2794;0;0;0;0;9;0;1503;0;0;0;0
16.12.17;18:40:00;1;982;11272;0;2;0;2458;0;0;0;0;3;0;1519;0;0;0;0;4;0;2091;0;0;0;0;5;0;5435;2;0;0;0;0;0;6;0;3993;2;0;0;0;0;0;7;0;2776;0;0;0;0;8;0;2794;0;0;0;0;9;0;1503;0;0;0;0
16.12.17;18:35:00;1;1047;11162;0;2;0;2458;0;0;0;0;3;0;1519;0;0;0;0;4;0;2091;0;0;0;0;5;0;5435;2;0;0;0;0;0;6;0;3993;2;0;0;0;0;0;7;0;2776;0;0;0;0;8;0;2794;0;0;0;0;9;0;1503;0;0;0;0
16.12.17;18:30:00;1;639;11086;0;2;0;2458;0;0;0;0;3;0;1519;0;0;0;0;4;0;2091;0;0;0;0;5;0;5435;2;0;0;0;0;0;6;0;3993;2;0;0;0;0;0;7;0;2776;0;0;0;0;8;0;2794;0;0;0;0;9;0;1503;0;0;0;0
16.12.17;18:25:00;1;625;11033;0;2;0;2458;0;0;0;0;3;0;1519;0;0;0;0;4;0;2091;0;0;0;0;5;0;5435;2;0;0;0;0;0;6;0;3993;2;0;0;0;0;0;7;0;2776;0;0;0;0;8;0;2794;0;0;0;0;9;0;1503;0;0;0;0
16.12.17;18:20:00;1;713;10981;0;2;0;2458;0;0;0;0;3;0;1519;0;0;0;0;4;0;2091;0;0;0;0;5;0;5435;2;0;0;0;0;0;6;0;3993;2;0;0;0;0;0;7;0;2776;0;0;0;0;8;0;2794;0;0;0;0;9;0;1503;0;0;0;0
16.12.17;18:15:00;1;1212;10922;0;2;0;2458;0;0;0;0;3;0;1519;0;0;0;0;4;0;2091;0;0;0;0;5;0;5435;2;0;0;0;0;0;6;0;3993;2;0;0;0;0;0;7;0;2776;0;0;0;0;8;0;2794;0;0;0;0;9;0;1503;0;0;0;0
16.12.17;18:10:00;1;693;10836;0;2;0;2458;0;0;0;0;3;0;1519;0;0;0;0;4;0;2091;0;0;0;0;5;0;5435;2;0;0;0;0;0;6;0;3993;2;0;0;0;0;0;7;0;2776;0;0;0;0;8;0;2794;0;0;0;0;9;0;1503;0;0;0;0
16.12.17;18:05:00;1;658;10778;0;2;0;2458;0;0;0;0;3;0;1519;0;0;0;0;4;0;2091;0;0;0;0;5;0;5435;2;0;0;0;0;0;6;0;3993;2;0;0;0;0;0;7;0;2776;0;0;0;0;8;0;2794;0;0;0;0;9;0;1503;0;0;0;0
16.12.17;18:00:00;1;673;10723;0;2;0;2458;0;0;0;0;3;0;1519;0;0;0;0;4;0;2091;0;0;0;0;5;0;5435;2;0;0;0;0;0;6;0;3993;2;0;0;0;0;0;7;0;2776;0;0;0;0;8;0;2794;0;0;0;0;9;0;1503;0;0;0;0
16.12.17;17:55:00;1;699;10667;0;2;0;2458;0;0;0;0;3;0;1519;0;0;0;0;4;0;2091;0;0;0;0;5;0;5435;2;0;0;0;0;0;6;0;3993;2;0;0;0;0;0;7;0;2776;0;0;0;0;8;0;2794;0;0;0;0;9;0;1503;0;0;0;0
16.12.17;17:50:00;1;733;10608;0;2;0;2458;0;0;0;0;3;0;1519;0;0;0;0;4;0;2091;0;0;0;0;5;0;5435;2;0;0;0;0;0;6;0;3993;2;0;0;0;0;0;7;0;2776;0;0;0;0;8;0;2794;0;0;0;0;9;0;1503;0;0;0;0
16.12.17;17:45:00;1;828;10537;0;2;0;2458;0;0;0;0;3;0;1519;0;0;0;0;4;0;2091;0;0;0;0;5;0;5435;2;0;0;0;0;0;6;0;3993;2;0;0;0;0;0;7;0;2776;0;0;0;0;8;0;2794;0;0;0;0;9;0;1503;0;0;0;0
16.12.17;17:40:00;1;458;10495;0;2;0;2458;0;0;0;0;3;0;1519;0;0;0;0;4;0;2091;0;0;0;0;5;0;5435;2;0;0;0;0;0;6;0;3993;2;0;0;0;0;0;7;0;2776;0;0;0;0;8;0;2794;0;0;0;0;9;0;1503;0;0;0;0
16.12.17;17:35:00;1;439;10457;0;2;0;2458;0;0;0;0;3;0;1519;0;0;0;0;4;0;2091;0;0;0;0;5;0;5435;2;0;0;0;0;0;6;0;3993;2;0;0;0;0;0;7;0;2776;0;0;0;0;8;0;2794;0;0;0;0;9;0;1503;0;0;0;0
16.12.17;17:30:00;1;394;10420;0;2;0;2458;0;0;0;0;3;0;1519;0;0;0;0;4;0;2091;0;0;0;0;5;0;5435;2;0;0;0;0;0;6;0;3993;2;0;0;0;0;0;7;0;2776;0;0;0;0;8;0;2794;0;0;0;0;9;0;1503;0;0;0;0
16.12.17;17:25:00;1;417;10386;0;2;0;2458;0;0;0;0;3;0;1519;0;0;0;0;4;0;2091;0;0;0;0;5;0;5435;2;0;0;0;0;0;6;0;3993;2;0;0;0;0;0;7;0;2776;0;0;0;0;8;0;2794;0;0;0;0;9;0;1503;0;0;0;0
16.12.17;17:20:00;1;568;10352;0;2;0;2458;0;0;0;0;3;0;1519;0;0;0;0;4;0;2091;0;0;0;0;5;0;5435;2;0;0;0;0;0;6;0;3993;2;0;0;0;0;0;7;0;2776;0;0;0;0;8;0;2794;0;0;0;0;9;0;1503;0;0;0;0
16.12.17;17:15:00;1;368;10292;0;2;0;2458;0;0;0;0;3;0;1519;0;0;0;0;4;0;2091;0;0;0;0;5;0;5435;2;0;0;0;0;0;6;0;3993;2;0;0;0;0;0;7;0;2776;0;0;0;0;8;0;2794;0;0;0;0;9;0;1503;0;0;0;0
16.12.17;17:10:00;1;328;10262;0;2;0;2458;0;0;0;0;3;0;1519;0;0;0;0;4;0;2091;0;0;0;0;5;0;5435;2;0;0;0;0;0;6;0;3993;2;0;0;0;0;0;7;0;2776;0;0;0;0;8;0;2794;0;0;0;0;9;0;1503;0;0;0;0
16.12.17;17:05:00;1;328;10234;0;2;0;2458;0;0;0;0;3;0;1519;0;0;0;0;4;0;2091;0;0;0;0;5;0;5435;2;0;0;0;0;0;6;0;3993;2;0;0;0;0;0;7;0;2776;0;0;0;0;8;0;2794;0;0;0;0;9;0;1503;0;0;0;0
16.12.17;17:00:00;1;327;10207;0;2;0;2458;0;0;0;0;3;0;1519;0;0;0;0;4;0;2091;0;0;0;0;5;0;5435;2;0;0;0;0;0;6;0;3993;2;0;0;0;0;0;7;0;2776;0;0;0;0;8;0;2794;0;0;0;0;9;0;1503;0;0;0;0
16.12.17;16:55:00;1;329;10180;0;2;0;2458;0;0;0;0;3;0;1519;0;0;0;0;4;0;2091;0;0;0;0;5;0;5435;2;0;0;0;0;0;6;0;3993;2;0;0;0;0;0;7;0;2776;0;0;0;0;8;0;2794;0;0;0;0;9;0;1503;0;0;0;0
16.12.17;16:50:00;1;335;10152;0;2;0;2458;0;0;0;0;3;0;1519;0;0;0;0;4;0;2091;0;0;0;0;5;0;5435;2;0;0;0;0;0;6;0;3993;2;0;0;0;0;0;7;0;2776;0;0;0;0;8;0;2794;0;0;0;0;9;0;1503;0;0;0;0
16.12.17;16:45:00;1;753;10124;0;2;0;2458;0;0;0;0;3;0;1519;0;0;0;0;4;0;2091;0;0;0;0;5;0;5435;2;0;0;0;0;0;6;0;3993;2;0;0;0;0;0;7;0;2776;0;0;0;0;8;0;2794;0;0;0;0;9;0;1503;0;0;0;0
16.12.17;16:40:00;1;337;10069;0;2;0;2458;0;0;0;0;3;0;1519;0;0;0;0;4;0;2091;0;0;0;0;5;0;5435;2;0;0;0;0;0;6;0;3993;2;0;0;0;0;0;7;0;2776;0;0;0;0;8;0;2794;0;0;0;0;9;0;1503;0;0;0;0
16.12.17;16:35:00;1;349;10040;0;2;0;2458;0;0;0;0;3;0;1519;0;0;0;0;4;0;2091;0;0;0;0;5;0;5435;2;0;0;0;0;0;6;0;3993;2;0;0;0;0;0;7;0;2776;0;0;0;0;8;0;2794;0;0;0;0;9;0;1503;0;0;0;0
16.12.17;16:30:00;1;399;10008;0;2;0;2458;0;0;0;0;3;0;1519;0;0;0;0;4;0;2091;0;0;0;0;5;0;5435;2;0;0;0;0;0;6;0;3993;2;0;0;0;0;0;7;0;2776;0;0;0;0;8;0;2794;0;0;0;0;9;0;1503;0;0;0;0
16.12.17;16:25:00;1;400;9975;0;2;0;2458;0;0;0;0;3;0;1519;0;0;0;0;4;0;2091;0;0;0;0;5;0;5435;2;0;0;0;0;0;6;0;3993;2;0;0;0;0;0;7;0;2776;0;0;0;0;8;0;2794;0;0;0;0;9;0;1503;0;0;0;0
16.12.17;16:20:00;1;296;9941;0;2;0;2458;0;0;0;0;3;0;1519;0;0;0;0;4;0;2091;0;0;0;0;5;0;5435;2;0;0;0;0;0;6;0;3993;2;0;0;0;0;0;7;0;2776;0;0;0;0;8;0;2794;0;0;0;0;9;0;1503;0;0;0;0
16.12.17;16:15:00;1;256;9915;0;2;0;2458;0;0;0;0;3;0;1519;0;0;147;6;4;0;2091;0;0;0;0;5;0;5435;2;0;0;0;0;0;6;0;3993;2;0;0;0;0;0;7;0;2776;0;0;0;0;8;0;2794;0;0;0;0;9;0;1503;0;0;0;0
16.12.17;16:10:00;1;651;9893;0;2;0;2458;0;0;216;6;3;0;1519;6;0;286;12;4;0;2091;0;0;0;0;5;0;5435;2;0;0;0;0;0;6;0;3993;2;0;0;0;0;0;7;0;2776;0;0;0;0;8;0;2794;0;0;0;0;9;0;1503;0;0;0;0
16.12.17;16:05:00;1;1255;9830;0;2;0;2458;6;0;282;8;3;0;1519;6;0;300;12;4;0;2091;0;0;26;2;5;0;5435;2;0;0;0;0;0;6;0;3993;2;0;0;0;0;0;7;0;2776;0;0;0;0;8;0;2794;0;0;0;0;9;0;1503;0;0;0;0
16.12.17;16:00:00;1;655;9745;0;2;0;2458;6;0;313;9;3;0;1519;6;0;359;12;4;0;2091;2;0;84;6;5;0;5435;2;0;0;0;0;0;6;0;3993;2;0;0;0;0;0;7;0;2776;0;0;0;0;8;0;2794;0;0;0;0;9;0;1503;0;0;0;0
16.12.17;15:55:00;1;715;9690;0;2;0;2458;6;0;324;9;3;0;1519;6;0;382;12;4;0;2091;1;0;93;6;5;0;5435;2;2;4;7;7;2;6;0;3993;2;0;0;0;0;2;7;0;2776;0;0;0;0;8;0;2794;0;0;0;0;9;0;1503;0;0;0;0
16.12.17;15:50:00;1;1183;9636;0;2;0;2458;6;0;345;9;3;0;1519;6;0;419;12;4;0;2091;1;0;114;7;5;0;5435;26;0;0;225;223;14;6;0;3993;1;4;1;99;171;11;7;0;2776;0;0;154;7;8;0;2794;0;0;50;2;9;0;1503;0;0;210;6
16.12.17;15:45:00;1;560;9552;0;2;0;2458;6;0;368;9;3;0;1519;4;3;420;12;4;0;2091;1;0;144;7;5;0;5435;26;0;1;386;432;18;6;0;3993;23;6;3;180;496;16;7;0;2776;6;0;305;12;8;0;2794;6;0;290;11;9;0;1503;6;0;310;8
16.12.17;15:40:00;1;839;9506;0;2;0;2458;6;0;392;9;3;0;1519;3;4;443;13;4;0;2091;1;0;184;7;5;6;5435;1;0;3;405;521;18;6;0;3993;23;3;2;181;556;17;7;0;2776;6;0;371;12;8;0;2794;6;0;357;11;9;0;1503;6;0;382;8
16.12.17;15:35:00;1;593;9426;0;2;0;2458;6;0;382;9;3;0;1519;6;1;457;13;4;0;2091;1;0;166;7;5;0;5434;26;0;2;407;472;18;6;0;3993;23;5;4;181;539;17;7;0;2776;6;0;343;12;8;0;2794;6;0;330;11;9;0;1503;6;0;352;8
16.12.17;15:30:00;1;619;9376;0;2;0;2458;6;0;370;9;3;0;1519;6;2;420;13;4;0;2091;1;0;145;7;5;0;5434;26;0;1;393;442;19;6;0;3993;23;6;4;181;513;17;7;0;2776;6;0;307;12;8;0;2794;6;0;294;12;9;0;1503;6;0;313;8
16.12.17;15:25:00;1;954;9324;0;2;0;2458;6;0;371;9;3;0;1519;6;3;425;13;4;0;2091;1;0;145;8;5;0;5434;26;0;0;395;417;19;6;0;3993;23;5;3;181;517;17;7;0;2776;6;0;300;12;8;0;2794;6;0;286;12;9;0;1503;6;0;306;9
16.12.17;15:20:00;1;677;9240;0;2;0;2458;6;0;385;9;3;0;1519;6;2;460;13;4;0;2091;1;0;172;8;5;0;5434;23;0;2;412;481;19;6;0;3993;23;7;4;181;550;18;7;0;2776;6;0;347;12;8;0;2794;6;0;334;12;9;0;1503;6;0;353;9
16.12.17;15:15:00;1;771;9182;0;2;0;2458;6;0;381;9;3;0;1519;6;1;457;13;4;0;2091;1;0;165;8;5;0;5434;26;0;2;410;507;19;6;0;3993;23;6;4;564;180;18;7;0;2776;6;0;343;13;8;0;2794;6;0;330;12;9;0;1503;6;0;346;9
16.12.17;15:10:00;1;742;9115;0;2;0;2458;6;0;404;10;3;0;1519;4;2;482;13;4;0;2091;1;0;211;8;5;10;5434;26;1;3;422;661;19;6;0;3993;23;7;5;182;579;18;7;0;2776;6;0;410;13;8;0;2794;6;0;404;12;9;0;1503;6;0;413;9
16.12.17;15:05:00;1;1641;9055;0;2;0;2458;6;0;413;10;3;1;1519;3;6;479;13;4;0;2091;3;0;209;9;5;16;5433;1;4;5;422;674;19;6;0;3993;1;7;3;204;591;19;7;0;2776;6;1;436;13;8;0;2794;6;1;432;12;9;0;1503;6;0;465;9
16.12.17;15:00:00;1;705;8956;0;2;0;2458;6;0;398;10;3;0;1518;6;5;449;13;4;0;2091;1;0;199;9;5;7;5432;26;0;3;415;650;20;6;0;3993;23;6;3;245;573;19;7;0;2776;6;0;396;13;8;0;2794;6;0;392;12;9;0;1503;6;0;415;9
16.12.17;14:55:00;1;665;8896;0;2;0;2458;6;4;401;10;3;0;1518;6;3;497;13;4;0;2091;1;0;208;9;5;22;5431;26;5;9;415;652;20;6;0;3993;23;5;2;442;589;19;7;0;2776;6;0;412;13;8;0;2794;6;0;412;13;9;0;1503;6;0;429;9
16.12.17;14:50:00;1;735;8840;0;2;2;2458;6;13;391;10;3;5;1518;6;10;471;14;4;0;2091;3;0;213;9;5;13;5429;4;3;3;429;689;20;6;0;3993;8;4;3;465;596;20;7;0;2776;6;2;431;13;8;0;2794;6;2;434;13;9;0;1503;6;1;456;10
16.12.17;14:45:00;1;665;8782;0;2;0;2458;6;0;412;11;3;1;1518;6;3;501;14;4;0;2091;1;0;228;10;5;21;5428;4;6;8;417;661;21;6;0;3993;23;3;4;467;592;20;7;0;2776;6;0;441;14;8;0;2794;6;0;446;13;9;1;1503;6;1;450;10
16.12.17;14:40:00;1;781;8722;0;2;0;2458;4;5;412;11;3;0;1518;6;0;537;14;4;0;2091;3;0;219;10;5;94;5427;4;31;31;377;594;21;6;56;3992;4;17;19;456;422;21;7;5;2776;3;7;433;14;8;1;2794;3;8;436;13;9;2;1503;6;3;503;10
16.12.17;14:35:00;1;1103;8659;0;2;20;2458;3;34;395;11;3;5;1518;3;16;505;14;4;1;2091;3;1;209;10;5;124;5419;4;50;49;377;594;21;6;74;3987;4;42;43;456;422;21;7;1;2776;6;4;478;14;8;1;2794;6;4;480;14;9;2;1503;6;3;529;10
16.12.17;14:30:00;1;749;8567;0;2;55;2456;4;87;371;12;3;12;1517;6;25;501;14;4;18;2091;3;19;198;10;5;170;5408;4;72;65;377;594;21;6;105;3980;4;38;40;456;422;21;7;15;2776;6;30;443;14;8;16;2794;6;30;432;14;9;0;1502;6;0;568;10
16.12.17;14:25:00;1;2848;8481;0;2;63;2452;4;96;361;12;3;5;1516;6;11;541;14;4;28;2090;3;30;198;10;5;181;5394;4;86;73;377;594;21;6;118;3972;4;62;63;456;422;21;7;46;2775;4;80;398;15;8;47;2792;4;80;404;14;9;9;1502;4;16;524;11
16.12.17;14:20:00;1;2877;8244;0;2;119;2447;4;151;377;12;3;49;1516;6;70;521;15;4;71;2087;3;74;206;10;5;288;5379;4;145;120;381;594;21;6;189;3962;4;98;101;471;447;21;7;84;2771;4;122;448;15;8;85;2788;4;123;453;14;9;14;1502;6;19;567;11
16.12.17;14:15:00;1;787;8015;0;2;218;2437;4;253;382;12;3;131;1512;4;171;501;15;4;166;2082;5;172;229;11;5;475;5354;4;239;201;400;607;21;6;359;3945;4;194;205;583;560;21;7;212;2764;4;247;430;15;8;216;2781;4;254;460;14;9;113;1500;4;142;499;11
16.12.17;14:10:00;1;866;7949;0;2;306;2419;4;343;395;12;3;183;1501;4;227;519;15;4;247;2068;5;257;236;11;5;643;5314;4;321;283;402;656;21;6;483;3914;4;243;247;582;549;21;7;322;2746;4;351;467;15;8;310;2764;4;349;483;14;9;167;1491;4;198;530;11
16.12.17;14:05:00;1;861;7877;0;2;234;2393;4;270;384;13;3;140;1486;4;182;512;15;4;185;2048;5;193;229;11;5;503;5257;4;255;217;396;620;21;6;328;3873;4;161;160;497;461;21;7;248;2719;4;284;463;15;8;255;2737;4;290;463;14;9;138;1477;4;168;506;11
16.12.17;14:00:00;1;1147;7804;0;2;278;2373;4;319;394;13;3;170;1474;4;210;501;15;4;226;2032;5;236;232;11;5;609;5216;4;312;262;402;639;21;6;469;3846;4;255;265;586;565;21;7;297;2698;4;336;477;15;8;302;2715;4;343;482;14;9;165;1465;4;197;515;12
16.12.17;13:55:00;1;943;7704;0;2;233;2351;4;270;394;13;3;138;1460;4;177;512;15;4;186;2014;5;193;231;11;5;546;5166;4;274;240;405;627;21;6;407;3808;4;205;215;583;564;21;7;255;2675;4;291;466;15;8;252;2692;4;290;468;14;9;130;1452;4;164;527;12
16.12.17;13:50:00;1;2558;7628;0;2;465;2332;4;508;405;13;3;286;1449;4;333;512;15;4;402;1998;5;419;238;11;5;1032;5118;4;533;446;425;696;21;6;761;3772;4;395;391;600;573;21;7;508;2653;4;548;472;15;8;512;2671;4;550;483;14;9;269;1441;4;312;539;12
16.12.17;13:45:00;1;2845;7397;0;2;595;2294;4;642;413;13;3;372;1426;4;423;517;15;4;524;1966;5;546;244;11;5;1293;5031;4;653;560;425;707;21;6;967;3707;4;474;465;605;583;21;7;655;2613;4;702;486;14;8;653;2630;4;701;490;14;9;348;1420;4;391;533;12
16.12.17;13:40:00;1;2769;7162;0;2;528;2245;4;574;405;13;3;330;1395;4;379;511;15;4;464;1922;5;484;242;11;5;1144;4922;4;597;495;428;694;21;6;867;3625;4;470;455;605;577;21;7;625;2558;4;661;478;15;8;615;2575;4;667;480;14;9;339;1391;4;375;536;12
16.12.17;13:35:00;1;4587;6930;0;2;472;2200;4;520;408;13;3;293;1367;4;338;519;15;4;411;1882;5;428;244;11;5;1047;4827;4;535;453;430;694;21;6;792;3554;4;411;409;599;578;21;7;518;2504;4;567;483;15;8;535;2523;4;571;487;14;9;283;1362;4;322;532;12
16.12.17;13:30:00;1;4822;6522;0;2;470;2160;4;516;405;13;3;290;1342;4;336;532;15;4;409;1848;5;425;240;11;5;1055;4740;4;543;456;426;685;21;6;799;3488;4;404;396;600;578;21;7;522;2461;4;573;480;14;8;528;2478;4;577;467;14;9;285;1338;4;324;534;12